Regional Weather Roundup
Issued by NWS Charleston, WV

Home | Current Version | Previous Version | Graphics & Text | Print | Product List | Glossary On
Versions: 1 2 3 4 5 6 7 8 9 10 11 12 13 14 15 16 17 18 19 20 21 22 23 24 25 26 27 28
000
ASUS41 KRLX 221610
RWRRLX
West Virginia Regional Weather Roundup
National Weather Service Charleston WV
1200 PM EDT WED OCT 22 2014

Note: "fair" indicates few or no clouds below 12,000 feet with no
significant weather and/or obstructions to visibility.

WVZ003-221700-
Northern Panhandle of West Virginia

CITY           SKY/WX    TMP DP  RH WIND       PRES   REMARKS
WHEELING       CLOUDY    47  43  86 N12G21    30.18R
$$

WVZ009-221700-
Northwest West Virginia

CITY           SKY/WX    TMP DP  RH WIND       PRES   REMARKS
PARKERSBURG    CLOUDY    50  43  77 NW10G17   30.23R
$$

WVZ006-221700-
Western West Virginia

CITY           SKY/WX    TMP DP  RH WIND       PRES   REMARKS
HUNTINGTON     CLOUDY    49  43  80 N6        30.23S
$$

WVZ015-221700-
West Central West Virginia

CITY           SKY/WX    TMP DP  RH WIND       PRES   REMARKS
CHARLESTON     CLOUDY    49  44  83 NW7       30.21R
$$

WVZ022-031-221700-
North Central West Virginia

CITY           SKY/WX    TMP DP  RH WIND       PRES   REMARKS
CLARKSBURG     CLOUDY    48  44  86 N6        30.16R
MORGANTOWN     CLOUDY    50  43  77 VRB5      30.15S
$$

WVZ025-035-042-045-221700-
Southern West Virginia

CITY           SKY/WX    TMP DP  RH WIND       PRES   REMARKS
BECKLEY        LGT RAIN  43  41  93 N14G21    30.16R FOG
LOGAN          CLOUDY    45  45 100 VRB5G13   30.21R FOG
BLUEFIELD      CLOUDY    43  40  89 VRB5      30.16R FOG
LEWISBURG      CLOUDY    49  40  69 NW8       30.12R
$$

WVZ047-221700-
Northern Mountains of West Virginia

CITY           SKY/WX    TMP DP  RH WIND       PRES   REMARKS
ELKINS         CLOUDY    45  44  97 NW9       30.14R
$$

WVZ052-221700-
Eastern Panhandle of West Virginia

CITY           SKY/WX    TMP DP  RH WIND       PRES   REMARKS
MARTINSBURG    CLOUDY    55  43  63 N15G24    30.01S
PETERSBURG       N/A    N/A N/A N/A MISG        N/A
$$



USA.gov is the U.S. government's official web portal to all federal, state and local government web resources and services.